GW5574 Weather Reports


time (UTC)temp
C
wind
direction
speed
KPH
gust
KPH
rain 1hr
cm
rain 24hr
cm
rain mn
cm
humidity
%
barometer
mb
20260505023018 21 227 1.6 6.4 0.00 0.13 0.13 70 1001.8
20260505021524 20 196 0.0 3.2 0.00 0.13 0.13 71 1001.5
20260505020022 20 219 0.0 1.6 0.00 0.13 0.13 72 1001.4
20260505014512 20 220 0.0 0.0 0.00 0.13 0.13 70 1001.2
20260505013021 21 220 0.0 0.0 0.00 0.13 0.13 66 1001.0
20260505011522 21 220 0.0 3.2 0.00 0.13 0.13 63 1000.9
20260505010024 22 233 0.0 1.6 0.00 0.13 0.13 63 1000.8
20260505004508 22 232 0.0 3.2 0.00 0.13 0.13 61 1000.6
20260505003015 23 200 0.0 3.2 0.00 0.13 0.13 58 1000.4
20260505001518 23 227 1.6 4.8 0.00 0.13 0.13 54 1000.5
20260505000030 25 223 3.2 6.4 0.00 0.13 0.13 51 1000.5
20260504234524 25 227 3.2 8.0 0.00 0.13 0.13 50 1000.7
20260504233010 26 226 4.8 9.7 0.00 0.13 0.13 48 1000.8
20260504231524 26 219 3.2 12.9 0.00 0.13 0.13 48 1001.0
20260504230020 26 219 4.8 11.3 0.00 0.13 0.13 47 1001.2
20260504224527 26 229 4.8 12.9 0.00 0.13 0.13 48 1001.2
20260504223027 26 259 6.4 16.1 0.00 0.13 0.13 46 1001.2
20260504221513 26 208 6.4 11.3 0.00 0.13 0.13 45 1001.4
20260504220021 26 220 6.4 17.7 0.00 0.13 0.13 48 1001.4
20260504214522 26 283 6.4 19.3 0.00 0.13 0.13 48 1001.4
20260504213027 26 195 6.4 19.3 0.00 0.13 0.13 47 1001.5
20260504211529 26 207 8.0 17.7 0.00 0.13 0.13 47 1001.6
20260504210014 26 206 6.4 16.1 0.00 0.13 0.13 46 1001.7
20260504204518 26 203 6.4 17.7 0.00 0.13 0.13 48 1001.7
20260504203031 26 214 4.8 17.7 0.00 0.13 0.13 47 1001.8
20260504201528 26 257 4.8 12.9 0.00 0.13 0.13 48 1002.0
20260504200028 26 225 6.4 17.7 0.00 0.13 0.13 48 1002.1
20260504194528 26 226 4.8 22.5 0.00 0.13 0.13 50 1002.4
20260504193022 26 199 6.4 20.9 0.00 0.13 0.13 50 1002.5
20260504191529 25 225 8.0 19.3 0.00 0.13 0.13 52 1002.6
20260504190029 25 219 8.0 17.7 0.00 0.13 0.13 49 1002.6
20260504184533 25 143 4.8 12.9 0.00 0.13 0.13 53 1002.4
20260504183030 25 247 4.8 14.5 0.00 0.13 0.13 54 1002.4
20260504181524 25 218 6.4 14.5 0.00 0.13 0.13 53 1002.7
20260504180032 24 224 9.7 16.1 0.00 0.13 0.13 53 1002.7
20260504174525 24 136 11.3 22.5 0.00 0.13 0.13 51 1002.8
20260504173026 24 207 4.8 16.1 0.00 0.13 0.13 55 1002.9
20260504171530 24 207 6.4 19.3 0.00 0.13 0.13 53 1003.1
20260504081512 12 235 0.0 1.6 0.03 0.10 0.10 93 1007.0
20260504050024 12 231 0.0 3.2 0.00 0.00 0.00 83 1008.6
20260504044527 13 8 0.0 1.6 0.00 0.00 0.00 80 1008.2
20260504043015 13 8 0.0 1.6 0.00 0.00 0.00 82 1008.5
20260504041520 13 325 0.0 0.0 0.00 0.00 0.00 81 1008.6
20260504040024 13 325 0.0 0.0 0.00 0.00 0.00 80 1008.7
20260504034539 13 325 0.0 0.0 0.00 0.00 0.00 78 1008.8
20260504033029 13 325 0.0 0.0 0.00 0.00 0.00 77 1009.0
20260504031518 14 325 0.0 0.0 0.00 0.00 0.00 76 1009.1
20260504030029 15 325 0.0 0.0 0.00 0.00 0.00 71 1009.0
20260504024522 15 325 0.0 0.0 0.00 0.00 0.00 70 1008.9